Time,TemperatureF,DewpointF,PressureIn,WindDirection,WindDirectionDegrees,WindSpeedMPH,WindSpeedGustMPH,Humidity,HourlyPrecipIn,Conditions,Clouds,dailyrainin,SoftwareType,DateUTC
2013-08-25 00:13:00,58.8,53.0,29.88,ENE,66,0.0,1.0,82,0.00,,,0.00,weatherlink.com 1.10,2013-08-25 07:13:00,
2013-08-25 00:28:00,58.7,53.0,29.87,ENE,66,2.0,2.0,82,0.00,,,0.00,weatherlink.com 1.10,2013-08-25 07:28:00,
2013-08-25 00:43:00,58.4,53.0,29.88,ENE,66,0.0,2.0,83,0.00,,,0.00,weatherlink.com 1.10,2013-08-25 07:43:00,
2013-08-25 00:58:00,58.3,54.0,29.88,ENE,66,0.0,2.0,84,0.00,,,0.00,weatherlink.com 1.10,2013-08-25 07:58:00,
2013-08-25 01:13:00,58.0,53.0,29.88,ENE,66,0.0,1.0,84,0.00,,,0.00,weatherlink.com 1.10,2013-08-25 08:13:00,
2013-08-25 01:28:00,57.6,53.0,29.88,ENE,66,0.0,2.0,85,0.00,,,0.00,weatherlink.com 1.10,2013-08-25 08:28:00,
2013-08-25 01:43:00,57.5,53.0,29.89,ENE,66,2.0,3.0,85,0.00,,,0.00,weatherlink.com 1.10,2013-08-25 08:43:00,
2013-08-25 01:58:00,57.3,53.0,29.89,ENE,66,0.0,1.0,85,0.00,,,0.00,weatherlink.com 1.10,2013-08-25 08:58:00,
2013-08-25 02:13:00,57.0,53.0,29.89,ENE,66,0.0,0.0,85,0.00,,,0.00,weatherlink.com 1.10,2013-08-25 09:13:00,
2013-08-25 02:28:00,56.4,52.0,29.89,ENE,66,0.0,0.0,86,0.00,,,0.00,weatherlink.com 1.10,2013-08-25 09:28:00,
2013-08-25 02:44:00,55.9,52.0,29.89,ENE,66,0.0,0.0,87,0.00,,,0.00,weatherlink.com 1.10,2013-08-25 09:44:00,
2013-08-25 02:58:00,55.6,52.0,29.88,ENE,66,0.0,0.0,88,0.00,,,0.00,weatherlink.com 1.10,2013-08-25 09:58:00,
2013-08-25 03:13:00,55.3,52.0,29.89,ENE,66,0.0,0.0,89,0.00,,,0.00,weatherlink.com 1.10,2013-08-25 10:13:00,
2013-08-25 03:29:00,55.1,52.0,29.88,ENE,66,0.0,0.0,90,0.00,,,0.00,weatherlink.com 1.10,2013-08-25 10:29:00,
2013-08-25 03:44:00,54.9,52.0,29.89,ENE,66,0.0,1.0,90,0.00,,,0.00,weatherlink.com 1.10,2013-08-25 10:44:00,
2013-08-25 03:59:00,54.8,52.0,29.89,ENE,66,0.0,0.0,90,0.00,,,0.00,weatherlink.com 1.10,2013-08-25 10:59:00,
2013-08-25 04:14:00,54.8,52.0,29.89,ENE,66,0.0,0.0,90,0.00,,,0.00,weatherlink.com 1.10,2013-08-25 11:14:00,
2013-08-25 04:29:00,54.3,52.0,29.89,ENE,66,0.0,1.0,90,0.00,,,0.00,weatherlink.com 1.10,2013-08-25 11:29:00,
2013-08-25 04:44:00,53.9,51.0,29.89,ENE,66,1.0,1.0,90,0.00,,,0.00,weatherlink.com 1.10,2013-08-25 11:44:00,
2013-08-25 04:59:00,53.5,51.0,29.89,ENE,66,0.0,1.0,91,0.00,,,0.00,weatherlink.com 1.10,2013-08-25 11:59:00,
2013-08-25 05:14:00,53.1,51.0,29.89,ENE,66,0.0,0.0,91,0.00,,,0.00,weatherlink.com 1.10,2013-08-25 12:14:00,
2013-08-25 05:29:00,52.8,51.0,29.89,ENE,66,0.0,0.0,92,0.00,,,0.00,weatherlink.com 1.10,2013-08-25 12:29:00,
2013-08-25 05:44:00,52.5,50.0,29.89,ENE,66,0.0,0.0,92,0.00,,,0.00,weatherlink.com 1.10,2013-08-25 12:44:00,
2013-08-25 05:59:00,52.5,50.0,29.89,ENE,66,0.0,0.0,92,0.00,,,0.00,weatherlink.com 1.10,2013-08-25 12:59:00,
2013-08-25 06:14:00,52.4,50.0,29.89,ENE,66,0.0,0.0,92,0.00,,,0.00,weatherlink.com 1.10,2013-08-25 13:14:00,
2013-08-25 06:29:00,52.3,50.0,29.90,ENE,66,0.0,0.0,92,0.00,,,0.00,weatherlink.com 1.10,2013-08-25 13:29:00,
2013-08-25 06:44:00,52.1,50.0,29.90,ENE,66,0.0,0.0,92,0.00,,,0.00,weatherlink.com 1.10,2013-08-25 13:44:00,
2013-08-25 06:59:00,52.2,50.0,29.90,ENE,66,0.0,0.0,93,0.00,,,0.00,weatherlink.com 1.10,2013-08-25 13:59:00,
2013-08-25 07:14:00,52.3,50.0,29.90,ENE,66,0.0,0.0,92,0.00,,,0.00,weatherlink.com 1.10,2013-08-25 14:14:00,
2013-08-25 07:29:00,52.5,51.0,29.90,ENE,66,0.0,1.0,93,0.00,,,0.00,weatherlink.com 1.10,2013-08-25 14:29:00,
2013-08-25 07:44:00,53.3,51.0,29.90,ENE,66,0.0,0.0,93,0.00,,,0.00,weatherlink.com 1.10,2013-08-25 14:44:00,
2013-08-25 07:59:00,54.8,52.0,29.90,ENE,66,0.0,2.0,91,0.00,,,0.00,weatherlink.com 1.10,2013-08-25 14:59:00,
2013-08-25 08:14:00,56.9,53.0,29.90,ENE,66,2.0,3.0,88,0.00,,,0.00,weatherlink.com 1.10,2013-08-25 15:14:00,
2013-08-25 08:29:00,58.6,54.0,29.89,ENE,65,3.0,5.0,83,0.00,,,0.00,weatherlink.com 1.10,2013-08-25 15:29:00,
2013-08-25 08:44:00,59.7,54.0,29.90,ENE,57,0.0,5.0,82,0.00,,,0.00,weatherlink.com 1.10,2013-08-25 15:44:00,
2013-08-25 08:59:00,60.7,55.0,29.89,NE,46,3.0,7.0,80,0.00,,,0.00,weatherlink.com 1.10,2013-08-25 15:59:00,
2013-08-25 09:14:00,61.6,55.0,29.89,NE,46,0.0,4.0,78,0.00,,,0.00,weatherlink.com 1.10,2013-08-25 16:14:00,
2013-08-25 09:29:00,62.8,55.0,29.88,NNE,13,1.0,6.0,75,0.00,,,0.00,weatherlink.com 1.10,2013-08-25 16:29:00,
2013-08-25 09:44:00,63.3,55.0,29.88,North,5,0.0,4.0,73,0.00,,,0.00,weatherlink.com 1.10,2013-08-25 16:44:00,
2013-08-25 09:59:00,63.9,55.0,29.88,North,355,0.0,3.0,72,0.00,,,0.00,weatherlink.com 1.10,2013-08-25 16:59:00,
2013-08-25 10:14:00,64.5,55.0,29.88,NNW,328,1.0,3.0,70,0.00,,,0.00,weatherlink.com 1.10,2013-08-25 17:14:00,
2013-08-25 10:29:00,65.6,55.0,29.88,North,350,1.0,4.0,68,0.00,,,0.00,weatherlink.com 1.10,2013-08-25 17:29:00,
2013-08-25 10:44:00,65.8,55.0,29.88,SW,225,2.0,5.0,68,0.00,,,0.00,weatherlink.com 1.10,2013-08-25 17:44:00,
2013-08-25 10:59:00,67.2,56.0,29.87,NNE,24,3.0,5.0,67,0.00,,,0.00,weatherlink.com 1.10,2013-08-25 17:59:00,
2013-08-25 11:14:00,68.5,56.0,29.87,NE,38,1.0,8.0,65,0.00,,,0.00,weatherlink.com 1.10,2013-08-25 18:14:00,
2013-08-25 11:29:00,68.8,56.0,29.87,WNW,302,2.0,8.0,64,0.00,,,0.00,weatherlink.com 1.10,2013-08-25 18:29:00,
2013-08-25 11:44:00,69.4,55.0,29.87,West,273,1.0,9.0,61,0.00,,,0.00,weatherlink.com 1.10,2013-08-25 18:44:00,
2013-08-25 12:00:00,69.4,55.0,29.87,NE,46,1.0,5.0,61,0.00,,,0.00,weatherlink.com 1.10,2013-08-25 19:00:00,
2013-08-25 12:15:00,69.9,55.0,29.86,NNE,30,2.0,6.0,60,0.00,,,0.00,weatherlink.com 1.10,2013-08-25 19:15:00,
2013-08-25 12:30:00,70.1,55.0,29.85,NNE,14,3.0,6.0,60,0.00,,,0.00,weatherlink.com 1.10,2013-08-25 19:30:00,
2013-08-25 12:45:00,71.0,55.0,29.85,ENE,64,7.0,7.0,58,0.00,,,0.00,weatherlink.com 1.10,2013-08-25 19:45:00,
2013-08-25 13:00:00,72.4,55.0,29.85,North,355,1.0,6.0,55,0.00,,,0.00,weatherlink.com 1.10,2013-08-25 20:00:00,
2013-08-25 13:15:00,71.3,55.0,29.85,WSW,250,7.0,8.0,57,0.00,,,0.00,weatherlink.com 1.10,2013-08-25 20:15:00,
2013-08-25 13:30:00,69.9,55.0,29.84,WSW,242,3.0,8.0,60,0.00,,,0.00,weatherlink.com 1.10,2013-08-25 20:30:00,
2013-08-25 13:45:00,70.3,55.0,29.84,WSW,238,2.0,7.0,59,0.00,,,0.00,weatherlink.com 1.10,2013-08-25 20:45:00,
2013-08-25 14:00:00,70.0,55.0,29.84,West,278,2.0,8.0,60,0.00,,,0.00,weatherlink.com 1.10,2013-08-25 21:00:00,
2013-08-25 14:15:00,69.8,55.0,29.84,West,263,0.0,7.0,60,0.00,,,0.00,weatherlink.com 1.10,2013-08-25 21:15:00,
2013-08-25 14:30:00,69.2,55.0,29.83,SW,215,4.0,8.0,61,0.00,,,0.00,weatherlink.com 1.10,2013-08-25 21:30:00,
2013-08-25 14:45:00,69.1,55.0,29.83,West,267,2.0,7.0,62,0.00,,,0.00,weatherlink.com 1.10,2013-08-25 21:45:00,
2013-08-25 15:00:00,69.2,55.0,29.83,WSW,257,0.0,5.0,62,0.00,,,0.00,weatherlink.com 1.10,2013-08-25 22:00:00,
2013-08-25 15:15:00,69.1,55.0,29.83,WSW,238,3.0,6.0,62,0.00,,,0.00,weatherlink.com 1.10,2013-08-25 22:15:00,
2013-08-25 15:30:00,68.8,55.0,29.83,SW,227,4.0,6.0,62,0.00,,,0.00,weatherlink.com 1.10,2013-08-25 22:30:00,
2013-08-25 15:45:00,68.5,55.0,29.83,SW,230,0.0,6.0,63,0.00,,,0.00,weatherlink.com 1.10,2013-08-25 22:45:00,
2013-08-25 16:00:00,68.3,55.0,29.83,WSW,248,0.0,5.0,63,0.00,,,0.00,weatherlink.com 1.10,2013-08-25 23:00:00,
2013-08-25 16:15:00,68.5,56.0,29.83,WSW,248,2.0,2.0,64,0.00,,,0.00,weatherlink.com 1.10,2013-08-25 23:15:00,
2013-08-25 16:30:00,68.6,55.0,29.84,SSW,195,0.0,4.0,63,0.00,,,0.00,weatherlink.com 1.10,2013-08-25 23:30:00,
2013-08-25 16:45:00,68.5,56.0,29.84,SSW,195,0.0,1.0,65,0.00,,,0.00,weatherlink.com 1.10,2013-08-25 23:45:00,
2013-08-25 17:00:00,68.0,58.0,29.84,SSW,195,0.0,1.0,70,0.00,,,0.00,weatherlink.com 1.10,2013-08-26 00:00:00,
2013-08-25 17:15:00,67.1,59.0,29.83,SSW,195,0.0,0.0,74,0.01,,,0.01,weatherlink.com 1.10,2013-08-26 00:15:00,
2013-08-25 17:30:00,66.7,58.0,29.83,NE,52,0.0,3.0,74,0.01,,,0.01,weatherlink.com 1.10,2013-08-26 00:30:00,
2013-08-25 17:45:00,66.5,59.0,29.83,NE,52,0.0,0.0,76,0.01,,,0.01,weatherlink.com 1.10,2013-08-26 00:45:00,
2013-08-25 18:00:00,66.5,59.0,29.82,NE,52,0.0,0.0,77,0.01,,,0.01,weatherlink.com 1.10,2013-08-26 01:00:00,
2013-08-25 18:15:00,66.4,60.0,29.83,NE,52,0.0,0.0,79,0.00,,,0.01,weatherlink.com 1.10,2013-08-26 01:15:00,
2013-08-25 18:30:00,66.2,59.0,29.83,NE,52,0.0,0.0,78,0.00,,,0.01,weatherlink.com 1.10,2013-08-26 01:30:00,
2013-08-25 18:45:00,66.1,60.0,29.82,NE,52,0.0,0.0,80,0.00,,,0.01,weatherlink.com 1.10,2013-08-26 01:45:00,
2013-08-25 19:00:00,65.8,60.0,29.82,NE,52,0.0,0.0,82,0.00,,,0.01,weatherlink.com 1.10,2013-08-26 02:00:00,
2013-08-25 19:15:00,65.7,60.0,29.83,NE,52,0.0,0.0,81,0.00,,,0.01,weatherlink.com 1.10,2013-08-26 02:15:00,
2013-08-25 19:30:00,65.5,58.0,29.83,NE,52,0.0,0.0,78,0.00,,,0.01,weatherlink.com 1.10,2013-08-26 02:30:00,
2013-08-25 19:45:00,65.3,58.0,29.83,NE,52,0.0,0.0,77,0.00,,,0.01,weatherlink.com 1.10,2013-08-26 02:45:00,
2013-08-25 20:00:00,65.4,58.0,29.83,NE,52,0.0,1.0,78,0.00,,,0.01,weatherlink.com 1.10,2013-08-26 03:00:00,
2013-08-25 20:15:00,65.5,58.0,29.83,NE,52,0.0,2.0,77,0.00,,,0.01,weatherlink.com 1.10,2013-08-26 03:15:00,
2013-08-25 20:30:00,65.4,58.0,29.83,ENE,57,0.0,2.0,76,0.00,,,0.01,weatherlink.com 1.10,2013-08-26 03:30:00,
2013-08-25 20:45:00,65.0,57.0,29.83,ENE,57,0.0,0.0,76,0.00,,,0.01,weatherlink.com 1.10,2013-08-26 03:45:00,
2013-08-25 21:00:00,64.7,57.0,29.83,ENE,57,0.0,0.0,77,0.00,,,0.01,weatherlink.com 1.10,2013-08-26 04:00:00,
2013-08-25 21:15:00,64.4,58.0,29.83,ENE,57,0.0,0.0,80,0.00,,,0.01,weatherlink.com 1.10,2013-08-26 04:15:00,
2013-08-25 21:30:00,64.1,57.0,29.84,ENE,57,0.0,0.0,78,0.00,,,0.01,weatherlink.com 1.10,2013-08-26 04:30:00,
2013-08-25 21:45:00,64.1,57.0,29.85,ENE,57,0.0,0.0,77,0.00,,,0.01,weatherlink.com 1.10,2013-08-26 04:45:00,
2013-08-25 22:00:00,64.1,57.0,29.85,ENE,57,0.0,1.0,78,0.00,,,0.01,weatherlink.com 1.10,2013-08-26 05:00:00,
2013-08-25 22:15:00,64.1,57.0,29.84,ENE,57,0.0,1.0,79,0.00,,,0.01,weatherlink.com 1.10,2013-08-26 05:15:00,
2013-08-25 22:30:00,63.8,58.0,29.84,ESE,119,0.0,3.0,81,0.00,,,0.01,weatherlink.com 1.10,2013-08-26 05:30:00,
2013-08-25 22:45:00,63.4,58.0,29.84,ESE,119,0.0,1.0,82,0.00,,,0.01,weatherlink.com 1.10,2013-08-26 05:45:00,
2013-08-25 23:00:00,63.3,58.0,29.83,East,88,2.0,5.0,82,0.00,,,0.01,weatherlink.com 1.10,2013-08-26 06:00:00,
2013-08-25 23:15:00,63.2,58.0,29.84,East,93,0.0,5.0,83,0.00,,,0.01,weatherlink.com 1.10,2013-08-26 06:15:00,
2013-08-25 23:30:00,62.9,58.0,29.84,ESE,110,0.0,2.0,84,0.00,,,0.01,weatherlink.com 1.10,2013-08-26 06:30:00,
2013-08-25 23:45:00,62.6,58.0,29.83,ESE,105,0.0,1.0,84,0.00,,,0.01,weatherlink.com 1.10,2013-08-26 06:45:00,